Location: Cosy Dell
(34.2789°N, 117.4537°W)
Time: 20:24:50
(UTC+00:00)

Cosmos 1072 Rocket - Pass Details

Date: 14 July 2020
Orbit: 948 x 1009 km, 82.9° (Epoch: 13 August)

Event Time Altitude Azimuth Distance (km) Brightness Sun altitude
Exits shadow 11:02:37 25° 194° (SSW) 1,891 5.5 -18.7°
Maximum altitude 11:06:32 76° 276° (W) 1,016 4.5 -18.1°
Drops below altitude 10° 11:12:47 10° 3° (N) 2,724 7.5 -17.1°
Sets 11:15:18 0° 5° (N) 3,666 8.3 -16.8°
